Probability
0 0 1 1 1 0 0 0 0 0 0 0 0 0 0 0 0 0 0 0 0 1 1 1 3 6 6 5 2 1 3 5 6 6 6 6 6 6 6 5 4 3 1 0 0 0 0 0 0
0 0 0 0 0 0 0 0 0 0 0 0 0 0 0 0 0 0 0 0 0 1 2 2 3 4 5 4 3 1 2 4 6 6 6 6 6 6 6 4 3 3 2 1 0 0 0 0 0
0 0 0 0 0 0 0 0 0 0 0 0 0 0 0 0 0 1 2 1 1 2 2 3 3 3 3 3 3 2 1 2 4 5 5 6 6 6 5 4 3 3 3 2 1 0 0 0 0
0 0 0 0 0 0 0 0 0 0 0 0 0 0 0 0 1 2 3 3 2 2 2 2 3 3 3 3 2 2 1 1 1 2 3 4 5 5 4 3 3 3 3 3 1 0 0 0 0
0 0 0 0 0 0 0 0 0 0 0 0 0 0 0 1 2 3 3 3 3 3 2 2 3 3 3 3 3 2 2 1 0 0 1 2 4 4 3 3 3 3 3 3 2 1 0 0 0
0 0 0 0 0 0 0 0 0 0 0 0 0 0 1 2 3 3 3 3 3 3 3 3 3 3 3 3 3 2 2 1 0 0 0 1 2 3 3 3 3 3 3 3 3 2 1 0 0
0 0 0 0 0 0 0 0 0 0 0 0 0 0 1 2 3 3 3 3 4 4 5 5 4 3 3 3 2 1 1 0 0 0 0 0 1 2 3 3 3 3 3 3 3 3 2 1 0
0 0 0 0 0 0 0 0 0 0 0 0 0 0 0 1 1 3 3 4 6 7 8 7 6 4 3 3 2 0 0 0 0 0 0 0 0 1 1 2 3 3 3 3 3 3 2 1 0
1 0 0 0 0 0 0 0 0 0 0 0 0 0 0 0 1 3 3 4 6 8 9 9 8 7 5 4 2 1 0 0 0 0 0 0 0 0 0 1 2 3 3 3 3 3 2 1 0
2 1 0 0 0 0 0 0 0 0 0 0 0 0 0 0 1 2 3 3 4 6 7 8 9 9 9 7 5 4 2 1 0 0 0 0 0 0 0 0 1 2 3 3 3 3 3 1 0
2 1 0 0 0 0 0 0 0 0 0 0 0 0 0 0 1 1 2 3 3 4 4 5 6 8 11 11 10 7 5 3 1 0 0 0 0 0 0 0 0 1 2 3 3 3 3 2 1
1 0 0 0 0 0 0 0 0 0 0 0 0 0 0 0 0 0 1 1 2 3 3 3 4 5 9 11 11 9 8 6 3 1 0 0 0 0 0 0 0 0 1 2 3 3 3 2 1
0 0 0 0 0 0 0 0 0 0 0 0 0 0 0 0 0 0 0 0 1 2 2 2 2 3 4 6 7 6 6 5 4 2 1 0 0 0 0 0 0 0 0 1 1 2 1 1 0
0 0 0 0 0 0 0 0 0 0 0 0 0 0 0 0 0 0 0 0 0 1 1 1 1 1 2 2 2 2 2 2 3 3 2 1 1 0 0 0 0 0 0 0 0 0 0 0 0
0 0 0 0 0 0 0 0 0 0 0 0 0 0 0 0 0 0 0 0 0 0 0 0 0 0 0 0 0 0 0 1 2 3 2 1 1 1 1 0 0 0 0 0 0 0 0 0 0
0 0 0 0 0 0 0 0 0 0 0 0 0 0 0 0 0 0 0 0 0 0 0 0 0 0 0 0 0 0 0 1 1 2 2 1 1 1 1 0 0 0 0 0 0 0 0 0 0
0 0 0 0 0 0 0 0 0 0 0 0 0 0 0 0 0 0 0 0 0 0 0 0 0 0 0 0 1 0 1 1 1 1 1 1 1 1 1 0 0 0 0 0 0 0 0 0 0
0 0 0 0 0 0 0 0 0 0 0 0 0 0 0 0 0 0 0 0 0 0 0 0 0 0 0 0 0 0 1 2 2 1 1 1 0 0 0 0 0 1 0 0 0 0 0 0 0
0 0 0 0 0 0 0 0 0 0 0 0 0 0 0 0 0 0 0 0 0 0 0 0 0 0 0 0 0 0 0 1 1 1 0 0 0 0 0 0 0 0 0 0 0 0 0 0 0
0 0 0 0 0 0 0 0 0 0 0 0 0 0 0 0 0 0 0 0 0 0 0 0 0 0 0 0 0 0 0 0 0 0 0 0 0 0 0 0 0 0 0 0 0 0 0 0 0
0 0 0 0 0 0 0 0 0 0 0 0 0 0 0 0 0 0 0 0 0 0 0 0 0 0 0 0 0 0 0 0 0 0 0 0 0 0 0 0 0 0 0 0 0 0 0 0 0
0 0 0 0 0 0 0 0 0 0 0 0 0 0 0 0 1 1 1 0 0 0 0 0 0 0 0 0 0 0 0 0 0 0 0 0 0 0 0 0 0 0 0 0 0 0 0 0 0
0 0 0 0 0 0 0 0 0 0 0 0 0 0 0 0 1 1 1 0 0 0 0 0 0 0 0 0 1 1 1 0 0 0 0 0 0 0 0 0 0 0 0 0 0 0 0 0 0
0 0 0 0 0 0 0 0 0 0 0 0 0 0 0 0 0 0 0 0 0 0 0 0 0 0 0 0 1 2 1 0 0 0 0 0 0 0 0 0 0 0 0 0 0 0 0 0 0
0 0 0 0 0 0 0 0 0 0 0 0 0 0 0 0 0 0 0 0 0 0 0 0 0 0 0 0 1 2 1 0 0 0 0 0 0 0 0 0 0 0 0 0 0 0 0 0 0
0 0 0 0 0 0 0 0 0 0 0 0 0 0 0 0 0 0 0 0 0 0 0 0 0 0 0 0 2 3 2 1 1 0 0 0 0 0 0 0 0 0 0 0 0 0 0 0 0
0 0 0 0 0 0 0 0 0 0 0 0 0 0 0 0 0 0 0 0 0 0 0 0 0 0 0 0 1 2 2 1 1 1 1 0 0 0 0 0 0 0 0 0 0 0 0 0 0
0 0 0 0 0 0 0 0 0 0 0 0 0 0 0 0 0 0 0 0 0 0 0 0 0 0 0 0 1 1 1 1 1 1 1 0 0 0 0 0 0 0 0 0 0 0 0 0 0
0 0 0 0 0 0 0 0 0 0 0 0 0 0 0 0 0 0 0 0 0 0 0 0 0 0 0 0 0 0 0 0 0 1 1 0 0 0 0 0 0 0 0 0 0 0 0 0 0
0 0 0 0 0 0 0 0 0 0 0 0 0 0 0 0 0 0 0 0 0 0 0 0 0 0 0 0 0 0 0 0 0 0 0 0 0 0 0 0 0 0 0 0 0 0 0 0 0
Wind_Speed
4 2 2 3 4 4 6 4 4 4 4 1 1 2 3 2 1 2 4 3 3 5 5 4 4 7 8 8 8 8 8 8 7 8 8 8 8 8 8 8 8 8 9 10 10 10 11 11 11
3 2 2 3 5 7 5 5 6 4 2 3 2 1 2 2 2 3 3 2 3 5 5 4 5 7 8 8 8 8 8 7 7 8 8 8 8 8 8 8 8 8 8 9 10 10 10 11 10
1 1 2 3 5 7 5 4 4 2 2 2 2 1 0 1 2 2 2 2 4 5 5 5 5 7 8 8 8 8 8 7 7 7 8 8 8 7 8 8 8 8 8 8 9 10 10 10 10
2 2 2 5 7 6 4 2 3 5 3 2 2 3 2 2 2 2 2 4 5 5 5 6 6 7 7 8 8 8 7 7 7 7 7 7 7 7 7 7 7 7 7 8 9 9 10 10 10
1 3 4 5 7 5 3 3 4 4 3 3 3 2 3 3 2 3 4 4 5 5 4 5 6 6 7 7 7 8 8 7 7 7 7 7 7 7 7 7 7 7 7 8 9 9 9 9 9
2 3 5 7 8 5 4 4 5 4 3 2 3 3 2 3 3 3 4 4 5 5 4 4 5 6 6 6 7 7 7 7 7 7 7 7 7 7 7 7 7 6 6 7 8 9 9 8 8
3 4 5 6 6 6 4 4 5 5 4 3 2 3 4 3 3 3 4 5 4 5 4 4 4 5 6 6 6 7 7 7 7 7 7 7 6 7 6 6 6 6 6 6 7 8 8 8 8
2 3 4 6 7 5 4 4 2 4 3 1 1 3 3 3 3 4 5 5 4 4 4 4 4 4 5 5 6 6 6 6 7 7 7 7 6 6 6 6 6 6 6 6 6 7 7 7 7
3 5 6 7 6 4 4 4 2 0 2 2 1 1 3 4 5 5 4 4 4 3 3 3 3 3 4 4 4 4 5 5 6 5 6 4 3 3 3 6 6 6 6 6 6 6 6 6 6
3 6 6 3 3 3 4 3 3 4 4 3 2 1 2 5 5 6 5 5 5 4 3 3 3 3 3 3 3 3 3 3 3 3 3 2 2 2 3 5 5 6 6 6 6 5 4 3 3
2 5 3 2 1 1 3 2 2 4 4 5 5 5 5 5 5 5 6 6 5 5 3 2 3 3 3 2 2 2 2 2 2 3 2 2 2 2 2 2 2 3 3 3 3 2 2 2 2
3 2 2 1 0 1 3 3 3 5 5 1 2 3 5 6 6 6 6 5 4 4 4 3 3 3 3 3 2 2 2 2 2 2 2 2 2 1 1 1 1 1 1 1 1 1 1 2 2
4 2 1 0 1 0 1 3 5 6 5 2 1 3 5 6 6 5 5 4 4 4 4 3 3 3 2 2 2 2 2 2 2 2 2 2 2 1 1 1 1 1 1 1 1 1 2 2 2
1 1 1 1 2 2 2 5 5 7 5 4 4 5 5 6 6 5 5 5 5 5 4 3 3 3 3 2 2 2 2 2 2 2 2 2 1 1 1 1 1 1 1 1 1 1 1 1 1
2 1 2 2 3 3 3 6 8 6 5 6 6 5 5 6 5 6 6 5 5 4 4 4 4 3 3 3 2 2 2 2 2 2 2 2 2 2 1 1 1 1 1 1 1 1 1 1 1
2 3 4 1 2 2 6 9 5 3 6 7 7 6 6 6 6 6 5 5 5 4 4 4 3 4 4 3 2 2 2 2 2 2 2 2 2 2 2 1 1 1 1 1 1 1 1 1 1
4 5 5 2 2 2 6 9 3 2 6 7 7 7 7 6 6 6 6 6 5 5 5 4 4 4 4 3 2 2 2 2 1 1 1 2 2 2 2 2 1 1 1 1 0 0 1 1 1
5 5 5 5 1 3 7 10 8 6 7 8 8 7 7 7 6 5 5 5 5 5 5 4 4 4 4 3 2 2 2 1 1 1 1 2 2 2 1 1 2 2 1 1 1 1 1 1 1
3 5 6 5 2 5 9 12 12 9 9 10 9 8 8 7 5 4 5 5 5 5 5 5 4 4 4 3 3 2 2 1 1 1 1 2 2 2 2 1 2 2 2 1 2 1 1 1 1
5 7 7 4 2 5 8 13 12 10 11 11 11 10 9 7 5 5 5 5 5 5 5 5 4 4 4 3 3 2 2 1 1 1 1 2 2 2 2 2 2 2 2 2 2 2 1 1 1
7 8 8 6 5 4 8 11 9 8 8 8 9 9 8 7 7 6 5 5 5 5 5 4 4 4 4 4 3 2 2 1 1 1 1 1 2 2 2 2 2 2 2 3 3 3 3 2 2
7 5 6 5 5 4 4 8 6 5 6 8 8 8 8 7 7 6 6 5 5 5 4 4 4 4 4 4 4 5 4 3 2 2 1 1 1 2 2 2 2 2 2 2 3 3 3 3 3
3 0 3 4 5 6 5 8 8 3 7 8 7 7 7 6 7 6 5 5 4 4 4 3 3 3 3 4 4 4 4 3 2 2 2 2 1 1 2 2 2 2 2 2 3 3 3 3 3
3 2 0 2 3 7 6 8 9 4 6 5 5 5 5 4 4 4 4 3 3 3 3 3 3 3 3 3 3 4 4 3 3 3 3 2 1 1 2 2 2 2 2 3 3 3 4 4 4
3 3 2 3 4 6 1 7 9 3 3 4 4 3 3 3 3 3 4 4 3 3 3 3 3 3 3 3 3 3 3 4 4 3 3 2 2 2 2 2 2 2 2 3 3 3 4 4 5
5 4 4 4 5 4 3 9 5 2 2 3 3 3 2 2 3 3 3 3 4 3 3 3 3 3 3 3 3 2 2 2 2 2 2 2 2 2 2 2 2 3 3 3 3 3 4 4 4
4 5 2 2 2 5 7 7 7 4 4 3 3 2 3 3 3 3 3 3 3 3 3 3 3 3 3 3 3 2 2 2 2 2 2 1 2 1 2 3 3 2 3 3 4 3 4 4 4
2 2 3 4 4 7 7 7 5 4 5 3 2 3 3 3 2 3 3 3 3 3 3 3 3 3 3 3 2 2 2 2 1 2 2 1 1 1 2 3 3 3 3 3 4 3 4 5 5
3 3 3 3 4 5 7 6 2 4 3 3 4 3 3 3 3 3 3 3 3 2 2 2 3 3 2 2 2 2 1 1 1 1 2 1 1 2 3 3 3 3 3 3 4 4 4 5 5
3 4 5 4 5 5 6 7 1 2 2 3 4 3 3 3 3 3 3 3 3 3 2 3 3 3 3 3 2 2 1 1 1 1 1 1 2 2 2 2 3 3 3 4 4 4 5 6 6
Wind_Direction
320 298 232 214 206 216 221 201 200 179 182 156 126 205 195 190 212 73 73 112 120 143 151 158 133 117 111 109 108 105 102 101 100 104 103 100 98 98 98 93 88 84 83 82 85 88 89 87 85
321 264 206 212 226 219 210 202 199 192 128 138 145 182 179 145 41 68 102 116 141 143 150 154 120 113 110 107 106 104 103 100 98 101 101 98 95 96 97 93 90 87 83 83 86 88 90 89 85
266 292 214 200 222 230 204 178 195 164 146 187 163 171 251 93 90 88 63 145 147 143 149 134 116 116 115 110 107 105 101 101 98 95 94 94 93 92 95 93 88 86 84 85 88 88 88 88 87
222 177 197 220 217 232 236 160 153 167 166 193 190 153 130 53 43 51 91 143 145 139 142 131 117 119 117 113 109 107 105 102 96 92 91 90 90 87 87 92 90 87 84 86 88 88 88 88 86
226 207 203 215 227 221 227 206 172 187 182 178 196 187 145 95 60 88 111 132 135 130 127 130 112 117 119 115 112 109 106 103 100 96 91 89 88 87 84 87 92 91 88 89 88 88 86 86 85
189 209 218 219 218 214 208 207 199 212 203 181 198 203 152 99 99 105 121 131 131 130 128 127 108 108 116 115 109 107 104 101 96 92 90 88 88 88 88 87 86 87 89 92 91 88 86 86 84
217 211 227 221 218 220 203 187 210 212 210 199 211 198 152 134 101 121 128 127 125 124 126 129 135 127 113 106 101 98 97 95 92 86 81 79 79 82 81 81 83 84 86 92 92 91 90 88 85
237 204 209 213 218 221 175 177 215 229 221 124 211 215 165 130 124 133 126 122 122 122 126 132 139 141 138 129 101 94 94 92 90 83 76 75 75 75 73 76 77 88 88 87 90 92 91 90 86
218 221 221 214 215 203 168 183 170 153 164 156 190 328 40 119 141 139 136 136 137 134 137 142 143 144 141 141 122 114 101 92 94 91 81 85 100 96 87 70 71 80 88 86 87 92 93 95 93
213 226 228 229 228 192 170 196 184 181 190 197 197 196 121 145 158 163 171 172 171 171 169 166 161 154 148 140 140 145 136 124 118 113 110 111 102 87 82 76 67 75 82 87 84 91 107 112 112
205 233 230 215 200 187 183 197 210 205 224 225 217 197 170 170 175 185 190 191 186 180 170 175 176 166 161 152 148 144 139 132 129 120 116 115 108 98 93 105 102 102 96 99 98 99 100 100 97
187 225 239 230 140 202 218 209 216 235 251 299 248 192 175 185 192 198 197 197 193 188 184 178 174 172 174 165 157 152 146 147 144 134 128 129 120 111 105 98 101 112 105 94 96 83 88 111 109
211 212 212 251 136 135 249 246 254 249 250 257 187 178 189 194 203 209 208 202 202 199 192 188 184 181 171 171 166 163 160 159 158 151 147 137 136 136 120 102 96 95 108 112 96 101 89 89 112
152 159 240 266 245 245 247 267 253 252 242 228 220 216 207 208 209 208 204 202 205 204 196 188 186 186 175 169 171 173 169 164 166 160 157 156 155 149 140 136 115 97 90 90 110 107 126 99 86
139 171 256 253 236 220 238 262 239 243 233 234 231 228 225 224 216 215 209 206 205 203 196 193 189 186 184 181 183 171 165 170 170 169 164 160 159 166 167 161 141 115 99 131 150 130 128 122 97
171 216 236 203 218 215 228 254 243 227 227 237 236 232 229 229 226 224 218 213 206 196 193 191 184 184 184 184 180 175 170 162 172 172 167 161 162 178 180 167 157 137 141 141 160 157 156 149 140
199 230 243 242 209 217 227 259 258 235 233 241 238 235 232 231 230 226 218 212 205 197 191 186 183 182 179 176 170 160 159 156 160 159 167 168 170 187 185 180 166 169 160 150 146 196 199 171 159
212 225 239 245 221 240 244 258 268 251 246 249 247 241 236 234 232 222 213 208 201 194 187 179 178 178 172 167 168 161 155 159 163 163 171 177 178 186 189 182 170 176 172 159 168 216 203 177 173
217 227 251 268 277 262 259 266 268 263 248 248 246 240 236 237 232 212 200 191 186 185 184 179 177 176 175 174 183 184 181 182 176 170 183 186 177 184 183 188 182 186 186 182 181 191 191 166 172
223 237 257 275 269 275 278 273 268 254 245 246 247 241 239 238 223 212 204 192 192 189 189 187 187 186 189 192 186 183 175 181 187 172 182 188 179 182 191 194 196 199 193 187 190 185 203 182 186
235 242 251 266 296 264 283 273 250 240 237 244 245 246 245 238 227 215 205 204 200 197 198 198 194 193 195 190 172 152 149 144 163 188 202 208 202 193 192 200 197 204 208 200 200 201 204 201 194
246 245 244 252 262 270 273 285 265 245 245 242 241 240 241 239 232 222 212 206 206 205 199 200 196 193 191 187 181 179 187 192 195 199 202 206 209 201 195 200 199 204 210 207 206 210 212 204 205
236 202 233 248 252 270 242 259 274 235 252 248 240 239 238 237 229 222 216 209 205 200 194 193 186 186 188 190 187 190 196 195 177 180 184 187 190 201 196 197 201 208 214 214 216 208 207 207 214
150 128 180 224 235 254 235 236 271 230 245 252 239 237 237 236 228 221 213 205 197 192 186 184 178 176 180 190 191 194 192 186 180 190 189 187 193 203 206 202 205 214 220 220 222 217 208 205 209
182 186 218 222 225 245 184 239 259 273 264 268 262 250 242 232 224 220 214 205 200 196 193 190 186 183 180 183 188 197 201 198 199 202 203 197 203 219 223 216 216 220 226 227 224 222 215 210 209
205 217 222 242 249 267 229 242 260 290 298 297 290 284 258 231 222 222 221 214 206 200 199 196 196 190 187 193 198 196 196 199 208 219 218 216 220 220 224 225 225 227 225 225 227 229 222 214 216
186 213 268 261 290 270 249 258 275 254 276 276 276 275 252 235 228 227 223 218 210 203 202 200 200 194 192 195 192 188 195 200 205 219 220 223 235 229 224 225 222 230 232 226 228 232 228 219 219
274 175 182 207 238 256 262 260 263 248 248 255 262 262 255 247 241 235 226 220 220 210 198 194 197 201 197 197 192 188 190 193 210 214 221 233 243 244 233 229 226 227 233 232 228 232 232 225 223
173 188 215 216 249 255 268 264 266 246 237 253 269 267 260 250 242 228 220 218 215 206 191 188 192 196 195 194 186 181 183 187 199 212 221 232 242 235 233 236 236 235 233 234 235 232 233 232 227
230 213 195 219 235 245 266 274 60 261 292 285 284 285 277 271 255 233 221 212 209 205 199 197 194 198 202 195 184 184 180 180 200 222 232 234 242 244 239 238 241 248 246 241 240 241 238 237 234